Weather History for Brindisi, Italy

Change the Weather History Date:

Monday, August 26, 2013

  Actual Average Record
Temperature  
Mean Temperature 82 °F -  
Max Temperature 92 °F 80 °F 93 °F (2004)
Min Temperature 73 °F 66 °F 64 °F (1997)
Cooling Degree Days 18    
Growing Degree Days 32 (Base 50)    
Moisture  
Dew Point 67 °F    
Average Humidity 65    
Maximum Humidity 78    
Minimum Humidity 36    
Precipitation  
Precipitation 0.00 in 0.06 in - ()
Sea Level Pressure  
Sea Level Pressure 29.87 in    
Wind  
Wind Speed 9 mph ()    
Max Wind Speed 17 mph    
Max Gust Speed -    
Visibility 6.1 miles    
Events      
Averages and records for this station are not official NWS values.
T = Trace of Precipitation, MM = Missing Value Source: Averaged Metar Reports

Daily Weather History Graph

Daily Weather History Graph

Search for Another Location

Airport:

Trip Planner

Search our weather history database for the weather conditions in past years. The results will help you decide how hot, cold, wet, or windy it might be!

Date:

Astronomy

Aug. 26, 2013 Rise Set
Actual Time 6:09 AM CEST 7:29 PM CEST
Civil Twilight 5:40 AM CEST 7:58 PM CEST
Nautical Twilight 5:06 AM CEST 8:32 PM CEST
Astronomical Twilight 4:30 AM CEST 9:08 PM CEST
Moon 10:26 PM CEST (8/26) 11:55 AM CEST (8/26)
Length of Visible Light 14h 17m
Length of Day
13h 20m
Waning Gibbous, 69% of the Moon is Illuminated
Aug 26
Waning Gibbous
Aug 28
Last Quarter
Sep 5
New
Sep 12
First Quarter
Sep 19
Full

Hourly Weather History & Observations

Time (CEST) Temp. Heat Index Dew Point Humidity Pressure Visibility Wind Dir Wind Speed Gust Speed Precip Events Conditions
12:15 AM 77.0 °F - 68.0 °F 74% 29.86 in 6.2 mi SSE 9.2 mph - N/A   Partly Cloudy
12:45 AM 75.2 °F - 66.2 °F 73% 29.86 in 6.2 mi SSE 6.9 mph - N/A   Partly Cloudy
1:15 AM 75.2 °F - 66.2 °F 73% 29.86 in 6.2 mi SSE 8.1 mph - N/A   Partly Cloudy
1:45 AM 75.2 °F - 66.2 °F 73% 29.86 in 6.2 mi SSE 9.2 mph - N/A   Partly Cloudy
2:00 AM 75 °F - 66 °F 67% 29.87 in 6 mi SSE 9.2 mph - -   Scattered Clouds
2:15 AM 73.4 °F - 64.4 °F 73% 29.86 in 6.2 mi SSE 11.5 mph - N/A   Partly Cloudy
2:45 AM 73.4 °F - 64.4 °F 73% 29.86 in 6.2 mi SSE 12.7 mph - N/A   Partly Cloudy
3:15 AM 73.4 °F - 66.2 °F 78% 29.86 in 6.2 mi SSE 11.5 mph - N/A   Partly Cloudy
3:45 AM 73.4 °F - 64.4 °F 73% 29.86 in 6.2 mi SSE 8.1 mph - N/A   Scattered Clouds
4:15 AM 73.4 °F - 64.4 °F 73% 29.86 in 6.2 mi SSE 9.2 mph - N/A   Scattered Clouds
4:45 AM 73.4 °F - 64.4 °F 73% 29.86 in 6.2 mi SSE 8.1 mph - N/A   Partly Cloudy
5:15 AM 73.4 °F - 64.4 °F 73% 29.86 in 6.2 mi SSE 9.2 mph - N/A   Partly Cloudy
5:45 AM 73.4 °F - 64.4 °F 73% 29.86 in 6.2 mi SSE 8.1 mph - N/A   Partly Cloudy
6:15 AM 73.4 °F - 64.4 °F 73% 29.86 in 6.2 mi SSE 9.2 mph - N/A   Partly Cloudy
6:45 AM 73.4 °F - 64.4 °F 73% 29.86 in 5.0 mi SSE 8.1 mph - N/A   Scattered Clouds
7:15 AM 73.4 °F - 64.4 °F 73% 29.86 in 5.0 mi SE 6.9 mph - N/A   Scattered Clouds
7:45 AM 77.0 °F - 66.2 °F 69% 29.86 in 5.0 mi South 6.9 mph - N/A   Partly Cloudy
8:15 AM 77.0 °F - 66.2 °F 69% 29.86 in - SSW 8.1 mph - N/A   Clear
8:45 AM 77.0 °F - 66.2 °F 69% 29.86 in - SSW 9.2 mph - N/A   Clear
9:15 AM 77.0 °F - 66.2 °F 69% 29.86 in - SSW 9.2 mph - N/A   Clear
9:45 AM 77.0 °F - 66.2 °F 69% 29.86 in - WSW 11.5 mph - N/A   Clear
10:15 AM 77.0 °F - 66.2 °F 69% 29.86 in - WSW 8.1 mph - N/A   Clear
10:45 AM 84.2 °F 85.6 °F 64.4 °F 51% 29.86 in 6.2 mi WSW 8.1 mph - N/A   Partly Cloudy
11:15 AM 86.0 °F 87.3 °F 64.4 °F 48% 29.86 in 6.2 mi NNW 5.8 mph - N/A   Partly Cloudy
11:45 AM 87.8 °F 90.4 °F 66.2 °F 49% 29.86 in 6.2 mi NE 8.1 mph - N/A   Scattered Clouds
12:15 PM 84.2 °F 90.9 °F 73.4 °F 70% 29.89 in 6.2 mi NE 11.5 mph - N/A   Scattered Clouds
12:45 PM 84.2 °F 90.9 °F 73.4 °F 70% 29.89 in 6.2 mi ENE 11.5 mph - N/A   Scattered Clouds
1:15 PM 84.2 °F 90.9 °F 73.4 °F 70% 29.89 in 6.2 mi ENE 11.5 mph - N/A   Scattered Clouds
1:45 PM 84.2 °F 90.9 °F 73.4 °F 70% 29.89 in 6.2 mi East 12.7 mph - N/A   Scattered Clouds
2:00 PM 85 °F - 74 °F 63% 29.89 in 6 mi East 12.7 mph - -   Partly Cloudy
2:15 PM 84.2 °F 90.9 °F 73.4 °F 70% 29.89 in 6.2 mi ENE 9.2 mph - N/A   Scattered Clouds
2:45 PM 89.6 °F 90.1 °F 62.6 °F 40% 29.89 in 6.2 mi SW 15.0 mph - N/A   Scattered Clouds
3:15 PM 91.4 °F 93.2 °F 64.4 °F 41% 29.89 in 6.2 mi SSW 17.3 mph - N/A   Scattered Clouds
3:45 PM 93.2 °F 94.9 °F 64.4 °F 38% 29.89 in 6.2 mi SSW 17.3 mph - N/A   Scattered Clouds
4:15 PM 93.2 °F 94.9 °F 64.4 °F 38% 29.89 in 6.2 mi SSW 15.0 mph - N/A   Scattered Clouds
4:45 PM 93.2 °F 94.1 °F 62.6 °F 36% 29.86 in 6.2 mi South 15.0 mph - N/A   Partly Cloudy
5:15 PM 91.4 °F 91.4 °F 60.8 °F 36% 29.86 in 6.2 mi South 11.5 mph - N/A   Partly Cloudy
5:45 PM 91.4 °F 91.4 °F 60.8 °F 36% 29.86 in 6.2 mi SSW 15.0 mph - N/A   Partly Cloudy
6:15 PM 91.4 °F 91.4 °F 60.8 °F 36% 29.86 in 6.2 mi SSW 16.1 mph - N/A   Partly Cloudy
6:45 PM 86.0 °F 90.4 °F 69.8 °F 58% 29.86 in - SSW 15.0 mph - N/A   Clear
7:15 PM 86.0 °F 90.4 °F 69.8 °F 58% 29.86 in - SSW 15.0 mph - N/A   Clear
7:45 PM 82.4 °F 88.2 °F 73.4 °F 74% 29.86 in - SW 11.5 mph - N/A   Clear
8:00 PM 83 °F - 74 °F 66% 29.88 in 6 mi SW 11.5 mph - -  
8:15 PM 82.4 °F 88.2 °F 73.4 °F 74% 29.86 in - SSW 12.7 mph - N/A   Clear
8:45 PM 82.4 °F 88.2 °F 73.4 °F 74% 29.86 in - South 10.4 mph - N/A   Clear
9:15 PM 82.4 °F 88.2 °F 73.4 °F 74% 29.86 in - South 11.5 mph - N/A   Clear
9:45 PM 80.6 °F 84.6 °F 71.6 °F 74% 29.86 in - SSW 9.2 mph - N/A   Clear
10:15 PM 80.6 °F 84.6 °F 71.6 °F 74% 29.86 in - South 9.2 mph - N/A   Clear
10:45 PM 80.6 °F 84.6 °F 71.6 °F 74% 29.89 in - South 10.4 mph - N/A   Clear
11:15 PM 80.6 °F 84.6 °F 71.6 °F 74% 29.89 in - South 9.2 mph - N/A   Clear
11:45 PM 80.6 °F 84.6 °F 71.6 °F 74% 29.89 in - SSE 9.2 mph - N/A   Clear